This is the latest recevied weather packets stored in our database for station/object OK1OBR-13. If no packets are shown the sender has not sent any weather packets the latest 1 day(s).
| Time | Temp. | Humidity | Pressure | Rain* | Wind** | Luminosity | Snow |
|---|---|---|---|---|---|---|---|
| 1778026202 | 12.22° C | 94% | 928.6 hPa | 0 mm | 1.34 m/s, 328° | - | - |
| 1778026142 | 12.22° C | 93% | 928.6 hPa | 0 mm | 0.89 m/s, 306° | - | - |
| 1778026080 | 12.22° C | 93% | 928.5 hPa | 0 mm | 0.89 m/s, 319° | - | - |
| 1778026021 | 12.22° C | 93% | 928.5 hPa | 0 mm | 0.89 m/s, 325° | - | - |
| 1778025960 | 12.22° C | 93% | 928.6 hPa | 0 mm | 1.79 m/s, 312° | - | - |
| 1778025901 | 12.22° C | 93% | 928.5 hPa | 0 mm | 1.34 m/s, 320° | - | - |
| 1778025841 | 12.22° C | 93% | 928.6 hPa | 0 mm | 0.89 m/s, 308° | - | - |
| 1778025781 | 12.22° C | 93% | 928.7 hPa | 0 mm | 0.89 m/s, 311° | - | - |
| 1778025721 | 12.22° C | 93% | 928.5 hPa | 0 mm | 1.34 m/s, 327° | - | - |
| 1778025661 | 12.22° C | 93% | 928.7 hPa | 0 mm | 1.34 m/s, 320° | - | - |
| 1778025600 | 12.22° C | 93% | 928.5 hPa | 0 mm | 1.34 m/s, 333° | - | - |
| 1778025541 | 12.22° C | 92% | 928.6 hPa | 0 mm | 1.34 m/s, 326° | - | - |
| 1778025481 | 12.22° C | 92% | 928.6 hPa | 0 mm | 0.89 m/s, 332° | - | - |
| 1778025420 | 12.22° C | 92% | 928.5 hPa | 0 mm | 1.34 m/s, 318° | - | - |
| 1778025361 | 12.22° C | 92% | 928.7 hPa | 0 mm | 0.89 m/s, 328° | - | - |
| 1778025301 | 12.22° C | 92% | 928.6 hPa | 0 mm | 1.34 m/s, 319° | - | - |
| 1778025241 | 12.22° C | 92% | 928.9 hPa | 0 mm | 1.34 m/s, 316° | - | - |
| 1778025181 | 12.22° C | 92% | 928.7 hPa | 0 mm | 1.34 m/s, 315° | - | - |
| 1778025122 | 12.22° C | 91% | 928.8 hPa | 0 mm | 0.89 m/s, 307° | - | - |
| 1778025061 | 12.22° C | 91% | 928.8 hPa | 0 mm | 0.89 m/s, 321° | - | - |
| 1778025001 | 12.22° C | 91% | 928.7 hPa | 0 mm | 0.89 m/s, 301° | - | - |
| 1778024941 | 12.22° C | 91% | 928.6 hPa | 0 mm | 0.89 m/s, 303° | - | - |
| 1778024881 | 12.22° C | 91% | 928.7 hPa | 0 mm | 0.89 m/s, 328° | - | - |
| 1778024821 | 12.22° C | 91% | 928.8 hPa | 0 mm | 0.89 m/s, 302° | - | - |
| 1778024761 | 12.22° C | 91% | 928.6 hPa | 0 mm | 0.89 m/s, 307° | - | - |
* Rain since midnight (hover to see other rain measurements)
** Current wind speed in m/s (hover to see current wind gust speed)